Torna al catalogo

STARLINK-34346

AttivoComunicazioniSSO
NORAD 64155·PAYLOAD·🇺🇸 United States

Lanciato May 27, 2025 da Vandenberg Space Force Base

Loading…

Prossimi Passaggi (prossime 24 ore)

TLE

AggiornatoSource: CelesTrak SupGP

Epoca: Sep 15, 2026, 03:41 UTC

1 64155C 25112K   26258.15395833  .00035642  00000+0  10630-2 0  2581
2 64155  97.2787 305.3058 0001019 140.7191  67.7415 15.34690731    11

Traccia STARLINK-34346 in tempo reale con AllMySat

Download on the App Store